timestamp,wind_dir_avg,wind_spd_avg,wind_spd_max_dir,wind_spd_gust,battery_voltage,lat,long
2022-01-31 00:04:01+00:00,237.0,15.57,241.0,19.85,12.49,47.59359,-54.27349
2022-01-31 00:14:01+00:00,228.0,12.21,227.0,15.3,12.41,47.59359,-54.27349
2022-01-31 00:24:01+00:00,238.0,16.86,241.0,20.69,12.41,47.59359,-54.27349
2022-01-31 00:34:01+00:00,238.0,17.12,236.0,21.33,12.41,47.59359,-54.27349
2022-01-31 00:44:01+00:00,240.0,18.66,238.0,21.28,12.41,47.59359,-54.27349
2022-01-31 00:54:01+00:00,234.0,16.02,240.0,21.13,12.41,47.59359,-54.27349
2022-01-31 01:04:01+00:00,234.0,17.23,233.0,21.17,12.41,47.59359,-54.27349
2022-01-31 01:14:00+00:00,234.0,19.64,233.0,22.06,12.41,47.59359,-54.27349
2022-01-31 01:24:00+00:00,234.0,17.77,236.0,21.26,12.41,47.59359,-54.27349
2022-01-31 01:34:00+00:00,231.0,14.0,240.0,19.87,12.41,47.59359,-54.27349
2022-01-31 01:44:00+00:00,229.0,13.56,237.0,19.67,12.41,47.59359,-54.27349
2022-01-31 01:54:00+00:00,237.0,19.33,232.0,22.04,12.41,47.59359,-54.27349
2022-01-31 02:04:00+00:00,240.0,17.13,239.0,20.89,12.41,47.59359,-54.27349
2022-01-31 02:14:00+00:00,240.0,18.46,236.0,21.07,12.41,47.59359,-54.27349
2022-01-31 02:24:00+00:00,230.0,12.23,240.0,18.95,12.41,47.59359,-54.27349
2022-01-31 02:34:00+00:00,230.0,15.21,233.0,20.99,12.41,47.59359,-54.27349
2022-01-31 02:44:00+00:00,228.0,11.55,244.0,16.96,12.41,47.59359,-54.27349
2022-01-31 02:54:00+00:00,227.0,11.7,239.0,16.37,12.41,47.59359,-54.27349
2022-01-31 03:04:00+00:00,235.0,15.78,236.0,21.25,12.41,47.59359,-54.27349
2022-01-31 03:14:01+00:00,231.0,14.87,241.0,20.16,12.41,47.59359,-54.27349
2022-01-31 03:24:01+00:00,235.0,13.53,241.0,18.51,12.41,47.59359,-54.27349
2022-01-31 03:34:01+00:00,228.0,11.56,240.0,15.05,12.41,47.59359,-54.27349
2022-01-31 03:44:01+00:00,226.0,11.03,239.0,17.11,12.41,47.59359,-54.27349
2022-01-31 03:54:01+00:00,227.0,12.83,235.0,20.23,12.41,47.59359,-54.27349
2022-01-31 04:04:01+00:00,243.0,9.61,250.0,12.09,12.41,47.59359,-54.27349
2022-01-31 04:14:00+00:00,234.0,11.36,247.0,17.41,12.33,47.59359,-54.27349
2022-01-31 04:24:00+00:00,229.0,10.29,232.0,12.06,12.33,47.59359,-54.27349
2022-01-31 04:34:00+00:00,229.0,10.18,226.0,11.33,12.33,47.59359,-54.27349
2022-01-31 04:44:00+00:00,236.0,10.4,237.0,12.19,12.33,47.59359,-54.27349
2022-01-31 04:54:00+00:00,234.0,10.71,233.0,12.49,12.33,47.59359,-54.27349
2022-01-31 05:04:00+00:00,230.0,10.55,236.0,12.45,12.33,47.59359,-54.27349
2022-01-31 05:14:00+00:00,218.0,11.88,212.0,13.43,12.33,47.59359,-54.27349
2022-01-31 05:24:00+00:00,219.0,11.82,213.0,14.41,12.33,47.59359,-54.27349
2022-01-31 05:34:00+00:00,223.0,11.11,224.0,13.19,12.33,47.59359,-54.27349
2022-01-31 05:44:00+00:00,225.0,11.07,218.0,13.08,12.33,47.59359,-54.27349
2022-01-31 05:54:00+00:00,229.0,10.24,224.0,11.61,12.33,47.59359,-54.27349
2022-01-31 06:04:00+00:00,224.0,11.86,230.0,15.05,12.33,47.59359,-54.27349
2022-01-31 06:14:00+00:00,222.0,10.76,223.0,11.82,12.33,47.59359,-54.27349
2022-01-31 06:24:00+00:00,227.0,11.0,222.0,13.87,12.33,47.59359,-54.27349
2022-01-31 06:34:00+00:00,228.0,10.47,232.0,12.33,12.33,47.59359,-54.27349
2022-01-31 06:44:00+00:00,225.0,11.11,228.0,13.46,12.33,47.59359,-54.27349
2022-01-31 06:54:00+00:00,225.0,11.78,233.0,15.86,12.33,47.59359,-54.27349
2022-01-31 07:04:00+00:00,213.0,13.16,220.0,15.03,12.33,47.59359,-54.27349
2022-01-31 07:14:00+00:00,222.0,11.77,233.0,16.63,12.33,47.59359,-54.27349
2022-01-31 07:24:00+00:00,226.0,10.76,230.0,12.18,12.33,47.59359,-54.27349
2022-01-31 07:34:00+00:00,227.0,10.58,231.0,11.94,12.33,47.59359,-54.27349
2022-01-31 07:44:00+00:00,230.0,11.25,247.0,14.46,12.33,47.59359,-54.27349
2022-01-31 07:54:00+00:00,230.0,10.34,244.0,12.71,12.33,47.59359,-54.27349
2022-01-31 08:04:00+00:00,232.0,11.88,249.0,18.49,12.33,47.59359,-54.27349
2022-01-31 08:14:00+00:00,233.0,10.41,237.0,13.03,12.33,47.59359,-54.27349
2022-01-31 08:24:00+00:00,232.0,9.59,239.0,12.23,12.33,47.59359,-54.27349
2022-01-31 08:34:00+00:00,230.0,9.58,237.0,11.96,12.33,47.59359,-54.27349
2022-01-31 08:44:00+00:00,235.0,10.35,238.0,12.0,12.33,47.59359,-54.27349
2022-01-31 08:54:00+00:00,235.0,10.56,235.0,11.81,12.33,47.59359,-54.27349
2022-01-31 09:04:00+00:00,232.0,9.94,240.0,11.94,12.33,47.59359,-54.27349
2022-01-31 09:14:01+00:00,240.0,9.76,244.0,11.48,12.25,47.59359,-54.27349
2022-01-31 09:24:01+00:00,242.0,9.65,246.0,11.28,12.25,47.59359,-54.27349
2022-01-31 09:34:01+00:00,237.0,9.04,238.0,10.54,12.25,47.59359,-54.27349
2022-01-31 09:44:01+00:00,236.0,9.64,245.0,12.71,12.25,47.59359,-54.27349
2022-01-31 09:54:01+00:00,237.0,8.29,238.0,11.58,12.25,47.59359,-54.27349
2022-01-31 10:04:01+00:00,231.0,9.2,231.0,10.29,12.25,47.59359,-54.27349
2022-01-31 10:14:01+00:00,236.0,10.45,235.0,12.33,12.25,47.59359,-54.27349
2022-01-31 10:24:01+00:00,235.0,9.9,239.0,11.87,12.25,47.59359,-54.27349
2022-01-31 10:34:01+00:00,236.0,10.11,240.0,11.79,12.25,47.59359,-54.27349
2022-01-31 10:44:01+00:00,242.0,10.6,239.0,11.46,12.25,47.59359,-54.27349
2022-01-31 10:54:01+00:00,240.0,9.89,242.0,11.49,12.25,47.59359,-54.27349
2022-01-31 11:04:01+00:00,238.0,9.38,243.0,11.24,12.25,47.59359,-54.27349
2022-01-31 11:14:01+00:00,235.0,9.73,237.0,11.77,12.25,47.59359,-54.27349
2022-01-31 11:24:01+00:00,235.0,9.29,245.0,11.76,12.25,47.59359,-54.27349
2022-01-31 11:34:01+00:00,237.0,8.9,249.0,11.16,12.25,47.59359,-54.27349
2022-01-31 11:44:01+00:00,239.0,8.79,246.0,10.66,12.25,47.59359,-54.27349
2022-01-31 11:54:01+00:00,237.0,9.36,238.0,14.78,12.25,47.59359,-54.27349
2022-01-31 12:04:01+00:00,244.0,11.18,246.0,15.74,12.25,47.59359,-54.27349
2022-01-31 12:14:00+00:00,238.0,10.59,237.0,13.7,12.41,47.59359,-54.27349
2022-01-31 12:24:00+00:00,234.0,8.87,243.0,11.2,12.41,47.59359,-54.27349
2022-01-31 12:34:00+00:00,238.0,8.4,246.0,10.83,12.41,47.59359,-54.27349
2022-01-31 12:44:00+00:00,245.0,8.29,242.0,9.88,12.41,47.59359,-54.27349
2022-01-31 12:54:00+00:00,239.0,8.56,249.0,10.98,12.41,47.59359,-54.27349
2022-01-31 13:04:00+00:00,238.0,9.21,245.0,11.34,12.41,47.59359,-54.27349
2022-01-31 13:14:01+00:00,239.0,9.0,242.0,12.34,12.81,47.59359,-54.27349
2022-01-31 13:24:01+00:00,239.0,8.87,235.0,11.86,12.81,47.59359,-54.27349
2022-01-31 13:34:01+00:00,249.0,8.77,244.0,9.69,12.81,47.59359,-54.27349
2022-01-31 13:44:01+00:00,257.0,10.39,259.0,12.05,12.81,47.59359,-54.27349
2022-01-31 13:54:01+00:00,240.0,10.67,243.0,12.95,12.81,47.59359,-54.27349
2022-01-31 14:04:01+00:00,238.0,11.8,238.0,13.64,12.81,47.59359,-54.27349
2022-01-31 14:14:01+00:00,244.0,11.18,243.0,12.77,13.68,47.59359,-54.27349
2022-01-31 14:24:01+00:00,241.0,10.71,244.0,13.03,13.68,47.59359,-54.27349
2022-01-31 14:34:01+00:00,240.0,10.41,242.0,12.99,13.68,47.59359,-54.27349
2022-01-31 14:44:01+00:00,253.0,13.36,254.0,18.21,13.68,47.59359,-54.27349
2022-01-31 14:54:01+00:00,247.0,11.02,253.0,14.65,13.68,47.59359,-54.27349
2022-01-31 15:04:01+00:00,243.0,12.29,243.0,13.83,13.68,47.59359,-54.27349
2022-01-31 15:14:00+00:00,248.0,10.34,249.0,12.33,13.05,47.59359,-54.27349
2022-01-31 15:24:00+00:00,238.0,10.69,243.0,12.64,13.05,47.59359,-54.27349
2022-01-31 15:34:00+00:00,242.0,9.67,245.0,11.74,13.05,47.59359,-54.27349
2022-01-31 15:44:00+00:00,246.0,10.87,252.0,13.49,13.05,47.59359,-54.27349
2022-01-31 15:54:00+00:00,244.0,10.25,241.0,12.89,13.05,47.59359,-54.27349
2022-01-31 16:04:00+00:00,254.0,10.36,250.0,11.5,13.05,47.59359,-54.27349
2022-01-31 16:14:00+00:00,241.0,9.92,240.0,12.11,13.44,47.59359,-54.27349
2022-01-31 16:24:00+00:00,247.0,8.99,250.0,10.99,13.44,47.59359,-54.27349
2022-01-31 16:34:00+00:00,251.0,9.87,246.0,11.6,13.44,47.59359,-54.27349
2022-01-31 16:44:00+00:00,249.0,9.09,256.0,11.12,13.44,47.59359,-54.27349
2022-01-31 16:54:00+00:00,256.0,10.08,258.0,11.16,13.44,47.59359,-54.27349
2022-01-31 17:04:00+00:00,255.0,11.05,250.0,11.94,13.44,47.59359,-54.27349
2022-01-31 18:14:00+00:00,253.0,10.94,253.0,11.88,13.05,47.59359,-54.27349
2022-01-31 18:24:00+00:00,247.0,12.43,248.0,13.6,13.05,47.59359,-54.27349
2022-01-31 18:34:00+00:00,246.0,12.42,243.0,13.69,13.05,47.59359,-54.27349
2022-01-31 18:44:00+00:00,241.0,11.54,235.0,13.3,13.05,47.59359,-54.27349
2022-01-31 18:54:00+00:00,250.0,8.8,248.0,10.6,13.05,47.59359,-54.27349
2022-01-31 19:04:00+00:00,244.0,9.52,240.0,11.62,13.05,47.59359,-54.27349
2022-01-31 19:14:00+00:00,240.0,12.31,238.0,14.38,12.81,47.59359,-54.27349
2022-01-31 19:24:00+00:00,238.0,12.46,237.0,16.33,12.81,47.59359,-54.27349
2022-01-31 19:34:00+00:00,245.0,11.38,247.0,12.39,12.81,47.59359,-54.27349
2022-01-31 19:44:00+00:00,256.0,12.53,259.0,14.69,12.81,47.59359,-54.27349
2022-01-31 19:54:00+00:00,260.0,10.99,257.0,12.58,12.81,47.59359,-54.27349
2022-01-31 20:04:00+00:00,255.0,11.4,254.0,12.39,12.81,47.59359,-54.27349
2022-01-31 21:14:01+00:00,259.0,10.66,268.0,11.51,12.57,47.59359,-54.27349
2022-01-31 21:24:01+00:00,254.0,10.96,249.0,12.11,12.57,47.59359,-54.27349
2022-01-31 21:34:01+00:00,249.0,12.21,250.0,13.18,12.57,47.59359,-54.27349
2022-01-31 21:44:01+00:00,252.0,12.4,255.0,14.55,12.57,47.59359,-54.27349
2022-01-31 21:54:01+00:00,254.0,10.82,256.0,11.69,12.57,47.59359,-54.27349
2022-01-31 22:04:01+00:00,247.0,11.05,252.0,12.4,12.57,47.59359,-54.27349
2022-01-31 22:14:00+00:00,242.0,10.92,239.0,12.16,12.57,47.59359,-54.27349
2022-01-31 22:24:00+00:00,232.0,11.78,237.0,13.45,12.57,47.59359,-54.27349
2022-01-31 22:34:00+00:00,232.0,10.75,234.0,12.02,12.57,47.59359,-54.27349
2022-01-31 22:44:00+00:00,243.0,9.99,240.0,11.53,12.57,47.59359,-54.27349
2022-01-31 22:54:00+00:00,246.0,9.05,252.0,10.86,12.57,47.59359,-54.27349
2022-01-31 23:04:00+00:00,243.0,8.48,244.0,10.46,12.57,47.59359,-54.27349
2022-01-31 23:14:01+00:00,246.0,11.12,249.0,12.47,12.49,47.59359,-54.27349
2022-01-31 23:24:01+00:00,249.0,13.67,243.0,15.66,12.49,47.59359,-54.27349
2022-01-31 23:34:01+00:00,245.0,13.86,250.0,16.74,12.49,47.59359,-54.27349
2022-01-31 23:44:01+00:00,257.0,12.87,258.0,14.43,12.49,47.59359,-54.27349
2022-01-31 23:54:01+00:00,251.0,11.37,251.0,14.02,12.49,47.59359,-54.27349
